CAPE
127 36 2 4 4 4 3 0 0 0 0 0 0 0 0 0 0 0 0 0 0 0 0 0 0 0 0 0 0 2 2 1 4 1 0 0 2 7 2 5 6 4 0
38 3 3 3 4 2 0 0 0 0 0 0 0 0 0 0 0 0 0 0 0 0 0 0 0 0 2 4 3 5 3 2 10 10 1 0 0 3 3 1 1 2 3
4 2 1 1 1 3 0 0 0 0 0 0 0 0 0 0 0 0 0 0 0 0 0 0 0 0 0 3 1 3 2 3 4 4 2 0 2 1 0 1 3 2 3
1 1 4 4 3 2 0 0 0 0 0 0 0 0 0 0 0 0 0 0 0 0 0 0 0 0 0 3 5 2 2 4 2 3 2 1 1 0 2 2 1 2 3
3 6 4 2 1 0 0 0 0 0 0 0 0 0 0 0 0 0 0 0 0 0 0 0 0 0 0 1 5 6 5 4 2 4 0 0 0 1 2 3 3 3 4
4 3 0 1 0 0 0 0 0 0 0 0 0 0 0 0 0 0 0 0 0 0 0 0 0 0 0 0 1 1 0 2 3 2 1 2 1 3 2 3 4 3 4
0 0 0 0 0 0 0 0 0 0 0 0 0 0 0 0 0 0 0 0 0 0 0 0 0 0 0 0 0 0 0 0 0 2 4 3 4 3 2 3 3 3 2
5 2 2 0 0 0 0 0 0 0 0 0 0 0 0 0 0 0 0 0 0 0 0 0 1 3 1 0 0 0 0 0 1 0 2 2 2 2 2 3 2 1 1
0 0 0 0 0 0 0 0 0 0 0 0 0 0 0 0 0 0 0 0 0 0 2 2 0 1 0 0 0 0 0 0 0 0 0 0 0 0 0 3 2 3 3
0 0 0 0 0 0 0 0 0 0 0 0 0 0 0 0 0 0 0 0 1 1 1 1 0 0 0 0 1 1 0 0 0 0 0 0 1 0 0 2 1 3 2
0 0 0 0 0 0 0 0 0 0 0 0 0 0 0 0 0 0 0 0 0 0 0 1 1 0 0 0 0 1 1 0 0 1 2 2 2 2 1 1 2 2 3
0 0 0 0 0 0 0 0 0 0 0 0 0 0 0 0 0 0 0 0 0 0 0 0 0 0 0 0 0 0 0 0 0 2 3 4 4 4 3 2 2 2 2
0 0 0 0 0 0 0 0 0 0 0 0 0 0 0 0 0 0 0 0 0 0 0 0 0 0 0 0 0 0 0 0 1 3 5 5 3 3 2 2 2 1 1
0 0 0 0 0 0 0 0 0 0 0 0 0 0 0 0 0 0 0 0 0 0 0 0 0 0 0 0 0 0 0 1 2 4 4 3 2 2 4 2 4 3 2
0 0 0 0 0 0 0 0 0 0 0 0 0 0 0 0 0 0 0 0 0 0 0 0 0 0 0 0 0 0 1 2 4 2 3 4 4 4 5 2 3 3 3
0 0 0 0 0 0 0 0 0 0 0 0 0 0 0 0 0 0 0 0 0 0 0 0 0 0 0 0 0 2 2 3 2 2 2 3 6 7 8 4 4 3 3
0 0 0 0 0 0 0 0 0 0 0 0 0 0 0 0 0 0 0 0 0 0 0 0 0 0 0 0 1 2 3 1 2 1 2 3 5 6 6 6 6 4 2
0 0 0 0 0 0 0 0 0 0 0 0 0 0 0 0 0 0 0 0 0 0 0 0 0 0 0 0 1 2 2 1 1 1 2 3 5 6 7 7 7 5 3
0 0 0 0 0 0 0 0 0 0 0 0 0 0 0 0 0 0 0 0 0 0 0 0 0 0 0 0 0 0 0 0 0 2 3 4 5 5 7 6 6 3 1
0 0 0 0 0 0 0 0 0 0 0 0 0 0 0 0 0 0 0 0 0 0 0 0 0 0 0 1 1 1 1 1 1 2 3 4 4 4 6 6 4 2 1
0 0 0 0 0 0 0 0 0 0 0 0 0 0 0 0 0 0 0 0 0 0 0 0 0 0 0 0 0 3 2 1 1 1 2 4 3 5 5 5 3 1 2
0 0 0 0 0 0 0 0 0 0 0 0 0 0 0 0 0 0 0 0 0 0 0 0 0 0 0 0 1 1 1 2 2 1 2 3 3 4 5 5 3 2 2
0 0 0 0 0 0 0 0 0 0 0 0 0 0 0 0 0 0 0 0 0 0 0 0 0 0 0 0 0 2 2 2 2 2 2 3 3 4 5 6 5 4 2
0 0 0 0 0 0 0 0 0 0 0 0 0 0 0 0 0 0 0 0 0 0 0 0 0 0 0 0 0 0 0 2 3 2 2 3 3 3 4 6 5 5 3
0 0 0 0 0 0 0 0 0 0 0 0 0 0 0 0 0 0 0 0 0 0 0 0 0 0 0 0 0 0 0 2 1 1 2 2 2 2 3 3 4 5 3
0 0 0 0 0 0 0 0 0 0 0 0 0 0 0 0 0 0 0 0 0 0 0 0 0 0 0 0 0 0 0 1 0 0 0 1 2 2 3 3 4 4 5
CIN
-341 -393 -0 -0 -0 -0 -0 -0 -0 -0 -0 -0 -0 -0 -0 -0 -0 -0 -0 -0 -0 -0 -0 -0 -0 -0 -0 -0 -0 -1 -1 -2 -0 -0 -0 -1 -1 -0 -1 -0 -0 -0 -0
-399 -0 -0 -0 -0 -0 -0 -0 -0 -0 -0 -0 -0 -0 -0 -0 -0 -0 -0 -0 -0 -0 -0 -0 -0 -0 -0 -1 -0 -1 -1 -2 -0 -0 -1 -0 -1 -0 -0 -0 -1 -0 -1
-0 -0 -0 -0 -0 -0 -0 -0 -0 -0 -0 -0 -0 -0 -0 -0 -0 -0 -0 -0 -0 -0 -0 -0 -0 -0 -0 -1 -2 -2 -2 -1 -1 -1 -1 -0 -1 -1 -0 -0 -0 -0 -1
-0 -0 -0 -0 -0 -0 -0 -0 -0 -0 -0 -0 -0 -0 -0 -0 -0 -0 -0 -0 -0 -0 -0 -0 -0 -0 -0 -0 -1 -1 -1 -0 -1 -0 -0 -0 -1 -1 -0 -0 -0 -0 -0
-0 -0 -0 -0 -0 -0 -0 -0 -0 -0 -0 -0 -0 -0 -0 -0 -0 -0 -0 -0 -0 -0 -0 -0 -0 -0 -0 -0 -0 -0 -1 -1 -0 -0 -0 -0 -0 -0 -0 -0 -0 -0 -0
-0 -0 -0 -0 -0 -0 -0 -0 -0 -0 -0 -0 -0 -0 -0 -0 -0 -0 -0 -0 -0 -0 -0 -0 -0 -0 -0 -0 -0 -0 -0 -0 -0 -0 -0 -0 -0 -0 -0 -0 -0 -0 -0
-0 -0 -0 -0 -0 -0 -0 -0 -0 -0 -0 -0 -0 -0 -0 -0 -0 -0 -0 -0 -0 -0 -0 -0 -0 -0 -0 -0 -0 -0 -0 -0 -0 -0 -0 -0 -0 -0 -0 -0 -0 -0 -0
-0 -0 -0 -0 -0 -0 -0 -0 -0 -0 -0 -0 -0 -0 -0 -0 -0 -0 -0 -0 -0 -0 -0 -0 -0 -0 -0 -0 -0 -0 -0 -1 -0 -0 -0 -0 -0 -0 -0 -0 -0 -0 -0
-0 -0 -0 -0 -0 -0 -0 -0 -0 -0 -0 -0 -0 -0 -0 -0 -0 -0 -0 -0 -0 -0 -0 -0 -0 -0 -0 -0 -0 -1 -0 -0 -0 -0 -0 -0 -0 -1 -0 -0 -0 -0 -0
-0 -0 -0 -0 -0 -0 -0 -0 -0 -0 -0 -0 -0 -0 -0 -0 -0 -0 -0 -0 -0 -1 -1 -0 -0 -0 -0 -0 -0 -0 -0 -0 -0 -0 -0 -0 -0 -0 -0 -0 -0 -0 -0
-0 -0 -0 -0 -0 -0 -0 -0 -0 -0 -0 -0 -0 -0 -0 -0 -0 -0 -0 -0 -0 -0 -0 -1 -1 -0 -0 -0 -0 -0 -0 -0 -0 -0 -0 -0 -0 -0 -0 -0 -0 -0 -0
-0 -0 -0 -0 -0 -0 -0 -0 -0 -0 -0 -0 -0 -0 -0 -0 -0 -0 -0 -0 -0 -0 -0 -0 -0 -0 -0 -0 -0 -0 -0 -0 -1 -0 -0 -0 -0 -0 -0 -0 -0 -0 -0
-0 -0 -0 -0 -0 -0 -0 -0 -0 -0 -0 -0 -0 -0 -0 -0 -0 -0 -0 -0 -0 -0 -0 -0 -0 -0 -0 -0 -0 -0 -0 -0 -0 -0 -0 -0 -0 -0 -0 -0 -0 -0 -0
-0 -0 -0 -0 -0 -0 -0 -0 -0 -0 -0 -0 -0 -0 -0 -0 -0 -0 -0 -0 -0 -0 -0 -0 -0 -0 -0 -0 -0 -0 -0 -0 -0 -0 -0 -0 -0 -0 -0 -0 -0 -0 -0
-0 -0 -0 -0 -0 -0 -0 -0 -0 -0 -0 -0 -0 -0 -0 -0 -0 -0 -0 -0 -0 -0 -0 -0 -0 -0 -0 -0 -0 -0 -0 -0 -0 -0 -0 -0 -0 -0 -0 -0 -0 -0 -0
-0 -0 -0 -0 -0 -0 -0 -0 -0 -0 -0 -0 -0 -0 -0 -0 -0 -0 -0 -0 -0 -0 -0 -0 -0 -0 -0 -0 -0 -0 -0 -0 -0 -0 -0 -0 -0 -0 -0 -0 -0 -0 -0
-0 -0 -0 -0 -0 -0 -0 -0 -0 -0 -0 -0 -0 -0 -0 -0 -0 -0 -0 -0 -0 -0 -0 -0 -0 -0 -0 -0 -0 -0 -0 -0 -0 -0 -0 -0 -0 -0 -0 -0 -0 -0 -0
-0 -0 -0 -0 -0 -0 -0 -0 -0 -0 -0 -0 -0 -0 -0 -0 -0 -0 -0 -0 -0 -0 -0 -0 -0 -0 -0 -0 -0 -0 -0 -0 -0 -0 -0 -0 -0 -0 -0 -0 -0 -0 -0
-0 -0 -0 -0 -0 -0 -0 -0 -0 -0 -0 -0 -0 -0 -0 -0 -0 -0 -0 -0 -0 -0 -0 -0 -0 -0 -0 -0 -0 -0 -0 -0 -0 -0 -0 -0 -0 -0 -0 -0 -0 -0 -0
-0 -0 -0 -0 -0 -0 -0 -0 -0 -0 -0 -0 -0 -0 -0 -0 -0 -0 -0 -0 -0 -0 -0 -0 -0 -0 -0 -0 -0 -0 -0 -0 -0 -0 -0 -0 -0 -0 -0 -0 -0 -0 -0
-0 -0 -0 -0 -0 -0 -0 -0 -0 -0 -0 -0 -0 -0 -0 -0 -0 -0 -0 -0 -0 -0 -0 -0 -0 -0 -0 -0 -0 -0 -0 -0 -0 -0 -0 -0 -0 -0 -0 -0 -0 -0 -0
-0 -0 -0 -0 -0 -0 -0 -0 -0 -0 -0 -0 -0 -0 -0 -0 -0 -0 -0 -0 -0 -0 -0 -0 -0 -0 -0 -0 -0 -0 -0 -0 -0 -0 -0 -0 -0 -0 -0 -0 -0 -0 -0
-0 -0 -0 -0 -0 -0 -0 -0 -0 -0 -0 -0 -0 -0 -0 -0 -0 -0 -0 -0 -0 -0 -0 -0 -0 -0 -0 -0 -0 -0 -0 -0 -0 -0 -0 -0 -0 -0 -0 -0 -0 -0 -0
-0 -0 -0 -0 -0 -0 -0 -0 -0 -0 -0 -0 -0 -0 -0 -0 -0 -0 -0 -0 -0 -0 -0 -0 -0 -0 -0 -0 -0 -0 -0 -0 -0 -0 -0 -0 -0 -0 -0 -0 -0 -0 -0
-0 -0 -0 -0 -0 -0 -0 -0 -0 -0 -0 -0 -0 -0 -0 -0 -0 -0 -0 -0 -0 -0 -0 -0 -0 -0 -0 -0 -0 -0 -0 -0 -0 -0 -0 -0 -0 -0 -0 -0 -0 -0 -0
-0 -0 -0 -0 -0 -0 -0 -0 -0 -0 -0 -0 -0 -0 -0 -0 -0 -0 -0 -0 -0 -0 -0 -0 -0 -0 -0 -0 -0 -0 -0 -0 -0 -0 -0 -0 -0 -0 -0 -0 -0 -0 -0
Wind_Speed
4 3 3 2 0 1 1 2 1 2 2 3 5 7 12 14 17 21 25 28 31 31 30 30 30 30 29 28 28 27 28 28 30 33 35 37 38 37 37 36 35 34 32
5 4 2 2 1 2 2 6 2 1 3 5 8 10 13 16 20 23 26 30 31 31 31 31 32 30 28 27 27 28 29 29 32 38 37 37 38 39 37 37 35 33 35
8 5 4 3 2 5 6 5 6 7 6 8 10 12 15 19 22 24 27 30 31 31 32 32 32 30 30 29 28 28 29 30 34 36 38 37 38 39 38 36 36 36 34
10 9 7 2 2 2 3 5 6 8 10 12 13 16 18 21 24 27 29 31 32 33 32 32 30 30 29 28 28 28 29 32 34 36 37 40 40 40 36 38 39 36 36
11 12 12 10 2 0 3 6 8 10 13 14 16 19 20 24 27 30 30 32 33 33 32 31 30 30 28 29 27 31 33 34 35 34 37 41 42 42 41 39 39 40 37
12 12 9 5 5 3 5 8 10 12 15 17 19 21 24 27 29 31 32 31 33 33 32 31 31 28 31 29 28 30 31 33 33 35 38 41 42 41 39 39 38 40 36
9 9 6 7 7 7 8 9 12 15 16 18 21 22 24 27 30 32 34 32 31 30 30 31 31 30 30 32 32 31 30 30 29 32 36 38 39 40 39 39 37 37 36
11 9 6 6 8 9 11 13 14 16 17 19 21 23 25 28 32 33 34 30 30 29 30 30 30 31 31 34 34 33 32 31 31 32 32 34 34 35 30 29 31 32 29
6 9 9 8 9 11 15 15 16 17 18 20 22 25 27 28 32 33 33 30 31 31 30 29 30 33 36 36 35 34 32 32 31 32 29 30 31 27 27 28 29 30 31
10 13 13 13 13 13 15 16 17 18 20 22 24 26 27 28 31 33 33 30 31 32 30 31 30 37 38 37 35 32 31 34 36 35 35 35 31 27 27 25 24 26 27
11 12 10 12 9 13 15 17 19 20 21 23 24 25 26 28 29 33 34 32 34 32 32 33 33 38 37 35 31 29 31 34 31 32 34 32 33 29 26 25 23 20 18
11 10 12 12 11 13 16 18 19 20 22 23 24 24 26 28 30 32 34 34 35 33 33 34 34 37 35 31 31 33 34 31 32 35 34 35 33 26 25 24 19 14 11
8 10 11 13 14 15 16 18 20 22 22 23 24 26 27 28 29 32 34 35 36 34 34 33 34 34 32 31 34 34 34 35 37 37 33 25 23 18 18 18 17 13 10
7 8 11 14 15 16 18 19 21 23 23 25 25 26 27 29 32 33 34 35 35 35 34 32 31 31 31 32 34 35 35 36 37 30 11 15 18 20 19 17 15 14 12
16 11 11 14 16 17 19 20 22 24 25 24 25 27 29 30 33 33 34 35 35 34 30 31 32 34 34 36 35 35 36 37 36 8 12 14 17 17 14 16 13 11 12
16 15 14 15 15 16 18 20 23 23 25 26 27 28 27 30 33 34 34 35 36 34 31 34 35 36 36 36 35 33 33 28 12 8 8 13 11 9 10 10 11 9 10
15 15 15 15 16 17 18 19 20 21 24 27 28 29 29 31 33 34 33 31 35 34 35 36 36 35 35 34 32 27 22 16 11 6 8 10 7 7 8 7 8 8 9
15 15 16 17 17 18 19 20 21 22 24 25 27 28 29 30 32 34 35 32 35 37 37 37 37 35 33 31 25 21 16 12 10 8 7 8 5 5 5 4 5 6 7
15 15 16 17 18 18 19 20 21 22 23 24 25 27 29 28 30 33 34 34 35 36 37 37 36 34 32 26 21 15 14 11 10 7 6 4 4 4 4 3 3 3 7
14 15 16 17 18 19 20 20 21 22 23 24 25 27 28 28 30 32 33 34 34 35 36 36 35 32 28 24 21 19 17 14 13 10 6 5 5 5 5 4 1 1 3
14 15 16 17 18 19 19 20 21 22 22 23 24 27 27 27 28 30 31 32 33 33 34 34 33 30 27 25 23 23 21 18 17 15 8 6 7 8 5 3 1 2 3
14 14 16 17 18 18 19 20 20 21 22 22 23 25 26 26 27 28 29 30 31 31 32 32 32 30 27 25 25 24 23 19 19 18 14 10 8 6 5 4 4 3 0
14 15 16 16 17 17 18 19 20 20 21 22 22 23 24 25 26 27 28 29 30 31 31 31 30 30 27 26 25 25 24 21 19 20 19 12 9 11 9 6 5 5 2
14 14 15 16 16 17 18 19 19 20 20 20 21 22 23 24 25 27 28 29 29 30 31 31 30 29 25 25 25 26 26 24 21 20 21 17 14 11 12 11 10 9 8
14 14 15 16 16 17 17 18 18 18 19 19 20 21 22 24 25 26 27 28 29 30 31 31 31 29 28 27 28 28 27 26 25 23 20 21 19 15 13 14 17 14 13
13 14 15 16 16 16 16 17 17 17 18 19 20 21 22 23 24 25 27 28 29 29 30 30 31 31 31 30 29 28 28 29 27 26 24 23 23 21 19 18 18 19 17
Wind_Direction
324 323 326 10 116 227 189 200 241 106 68 309 337 345 342 348 346 344 341 341 342 345 347 348 345 346 346 347 348 348 345 345 342 344 343 342 341 340 340 341 339 337 335
356 354 31 50 342 226 264 244 117 270 330 349 345 3 356 351 343 342 341 339 342 343 346 344 342 345 346 347 347 345 344 344 342 339 341 342 341 341 340 339 340 338 330
344 338 328 315 298 282 243 251 266 289 325 335 2 3 352 346 341 341 342 342 343 345 342 343 343 344 343 343 343 344 345 343 342 339 338 341 341 341 341 341 339 336 333
343 338 322 269 252 209 255 272 320 335 336 355 358 349 347 343 339 338 341 341 342 339 343 344 343 341 343 343 342 343 344 342 342 340 339 341 341 342 342 340 335 335 332
341 336 318 283 211 111 326 1 6 358 350 348 345 341 344 338 339 339 340 340 338 337 342 344 342 341 344 343 343 341 341 339 340 340 339 339 340 339 339 338 332 328 330
344 344 334 269 341 49 20 13 339 336 336 338 339 339 336 336 340 339 337 336 334 338 342 343 342 345 343 345 344 342 340 339 338 339 338 338 338 338 338 335 332 329 332
25 7 351 15 305 338 353 339 340 339 342 339 340 343 342 341 339 336 332 335 340 343 345 345 345 345 347 345 344 343 342 340 341 341 340 341 339 339 336 334 335 333 329
13 31 359 334 350 340 8 1 348 345 347 346 345 346 343 342 337 333 333 343 345 346 346 346 348 348 350 346 344 343 342 343 343 345 346 343 344 342 343 343 341 339 339
17 30 38 3 1 4 23 7 352 347 349 350 348 347 345 344 341 340 343 346 347 348 350 353 354 351 347 346 344 343 343 343 346 348 349 348 348 349 349 349 348 347 344
43 54 51 37 27 15 8 357 345 344 349 351 351 351 349 348 349 348 347 350 347 347 353 355 356 350 347 347 347 350 349 345 344 346 349 350 353 352 353 355 354 350 348
46 46 26 13 356 5 5 354 352 352 355 356 357 358 359 360 356 352 351 351 350 353 356 356 356 353 353 354 357 359 352 347 351 352 351 354 354 352 357 357 353 350 350
46 38 29 17 349 0 4 3 3 2 0 1 3 5 1 358 357 352 353 356 355 357 358 359 359 357 359 3 3 357 353 356 353 350 354 356 356 2 1 357 355 351 348
39 37 24 27 33 28 17 13 10 7 6 5 4 1 360 359 356 355 356 356 357 359 1 2 1 3 6 6 0 359 356 351 346 349 359 9 10 8 4 3 6 11 14
9 24 27 34 34 29 21 17 12 7 7 6 5 5 3 0 358 358 357 358 360 2 3 5 6 9 9 6 1 356 352 349 351 6 10 12 17 17 15 18 20 31 39
52 34 26 33 35 27 17 13 17 13 11 11 10 9 4 2 2 2 3 3 2 4 8 10 10 9 6 359 354 349 343 342 358 6 21 21 27 27 29 32 36 51 65
50 39 34 33 27 24 25 22 22 22 18 15 11 10 13 9 4 4 4 5 7 12 15 12 9 3 0 353 348 332 329 320 311 336 17 34 32 23 29 32 47 71 88
44 40 32 25 23 22 19 17 15 19 19 13 11 11 10 7 5 5 8 16 17 19 18 10 3 2 354 352 339 320 313 310 316 338 35 38 28 27 30 38 47 77 104
35 31 27 24 22 19 14 12 12 9 8 8 10 9 8 9 10 12 15 22 20 18 13 11 5 1 353 340 320 314 313 319 324 321 35 37 21 28 14 18 44 69 111
30 26 25 21 16 14 12 11 10 9 8 8 9 11 13 18 21 22 22 23 21 17 14 10 7 358 352 328 312 307 310 323 324 337 25 10 340 346 348 17 46 72 110
29 27 23 23 20 15 13 12 11 9 9 9 11 10 13 20 22 23 22 20 17 16 16 6 1 350 336 323 314 309 311 318 323 325 7 344 333 326 325 324 2 224 142
31 26 23 19 18 17 14 12 10 10 11 14 17 18 22 26 27 24 19 17 15 15 15 4 353 342 333 326 321 319 315 315 319 320 337 334 323 316 326 343 304 258 175
24 23 16 19 19 17 14 12 12 13 15 19 23 26 27 27 24 20 15 15 16 15 12 359 351 342 333 328 326 324 323 318 321 321 321 325 324 332 341 13 25 70 105
27 24 20 18 14 15 11 13 15 19 24 27 28 28 25 23 21 16 12 12 14 13 6 355 346 342 334 331 328 327 326 322 319 321 322 321 323 324 327 328 339 347 73
27 21 16 12 10 12 14 19 25 27 28 28 27 23 21 20 18 12 8 8 11 14 7 357 345 338 329 331 331 331 330 326 323 323 325 323 320 319 320 326 327 325 324
25 16 11 13 16 20 25 26 28 27 27 24 21 16 14 13 12 7 4 2 2 5 3 359 348 339 334 332 334 334 331 330 331 329 327 332 332 326 327 327 331 327 328
16 18 20 22 23 24 26 24 24 24 23 19 14 9 6 4 3 1 359 355 354 357 355 355 347 343 341 338 334 333 335 336 334 334 334 335 339 335 335 334 336 336 334